Location: *
(45.0167°S, 168.2667°W)
Time: 05:20:13
(UTC+00:00)

Daily predictions for brighter satellites

Satellite Brightness Start Highest point End
(mag) Time Altitude Azimuth Time Altitude Azimuth Time Altitude Azimuth
STARLINK-1291 3.8 04:11:58 10° W 04:15:15 45° SSW 04:18:34 10° SE
CZ-4B R/B 3.1 04:10:53 10° SSE 04:15:17 79° ENE 04:19:46 10° N
STARLINK-1317 4.0 04:12:15 10° W 04:15:44 45° SSW 04:19:14 10° SE
Meteor PRIRODA 3.7 04:12:53 10° SSE 04:16:37 62° E 04:20:19 10° N
STARLINK-1305 3.9 04:12:43 10° NW 04:16:51 61° NE 04:21:02 10° ESE
SKYMED 2 3.6 04:12:35 10° NNE 04:16:57 71° ESE 04:21:23 10° S
STARLINK-1264 3.8 04:13:51 10° W 04:17:09 44° SSW 04:20:27 10° SE
STARLINK-33 4.2 04:15:48 10° W 04:18:47 32° SSW 04:21:48 10° SE
STARLINK-1267 3.9 04:15:46 10° W 04:19:04 43° SSW 04:22:24 10° SE
STARLINK-1278 3.8 04:15:52 10° NW 04:20:10 75° NE 04:24:31 10° ESE
STARLINK-1272 3.9 04:17:40 10° W 04:20:58 42° SSW 04:24:16 10° SE
STARLINK-64 3.3 04:17:54 10° WNW 04:21:31 88° SSW 04:25:09 10° ESE
STARLINK-1262 3.8 04:17:40 10° NW 04:21:50 66° NE 04:26:02 10° ESE
STARLINK-1280 3.8 04:17:42 10° NW 04:22:01 77° NE 04:26:22 10° ESE
Cosmos 1340 2.6 04:18:56 10° N 04:22:43 77° E 04:26:36 10° SSE
STARLINK-1207 4.0 04:19:35 10° W 04:22:53 41° SSW 04:26:11 10° SE
Cosmos 1844 3.8 04:18:19 10° SSW 04:23:57 83° WNW 04:29:32 10° NNE
Cosmos 2219 Rocket 2.4 04:18:36 10° N 04:24:08 55° ENE 04:29:44 10° SSE
Iridium 4 Rocket 3.9 04:19:21 10° N 04:24:48 71° W 04:29:51 10° S
STARLINK-1266 4.0 04:21:34 10° W 04:24:50 40° SSW 04:28:08 10° SE
ALOS 2.4 04:21:06 10° SSE 04:25:53 86° WSW 04:30:36 10° NNW
H-2A R/B 2.4 04:22:04 10° SSE 04:26:17 74° ENE 04:30:18 10° N
STARLINK-1300 3.7 04:22:35 10° NW 04:26:46 71° NE 04:30:50 11° ESE
STARLINK-1284 4.0 04:23:33 10° W 04:26:49 39° SSW 04:30:05 10° SE
Cosmos 1680 Rocket 4.0 04:22:26 10° N 04:27:21 40° ENE 04:32:18 10° SE
Starlink 7 placeholder 3.1 04:24:18 10° WSW 04:27:21 67° NW 04:30:16 10° NE
STARLINK-66 4.4 04:24:36 10° W 04:27:32 29° SSW 04:30:29 10° SE
Shenzhou-11 Module 3.0 04:26:21 10° NW 04:28:40 29° NNE 04:30:59 10° E
STARLINK-1258 4.1 04:25:30 10° W 04:28:45 39° SSW 04:31:55 11° SE
Cosmos 923 Rocket 4.2 04:24:51 10° N 04:30:06 56° ENE 04:35:23 10° SSE
STARLINK-1292 4.1 04:27:28 10° W 04:30:43 38° SSW 04:33:49 11° SE
Meteor 2-6 Rocket 4.2 04:26:03 10° S 04:31:31 63° ESE 04:37:02 10° NNE
STARLINK-1295 3.7 04:27:35 10° NW 04:31:47 77° NE 04:35:39 12° ESE
STARLINK-1274 4.1 04:29:30 10° W 04:32:44 37° SSW 04:35:45 11° SE
STARLINK-52 3.4 04:29:42 10° SW 04:32:53 43° SSE 04:36:01 10° E
CZ-4C R/B 4.4 04:28:55 10° WSW 04:33:41 18° SSW 04:37:58 10° SSE
STARLINK-1338 4.5 04:30:38 10° SW 04:33:49 27° SSE 04:36:25 13° ESE
STARLINK-1289 4.2 04:31:33 10° W 04:34:46 36° SSW 04:37:43 12° SE
Cosmos 1500 Rocket 3.9 04:31:29 10° NNW 04:35:53 72° W 04:40:17 10° S
Cosmos 1782 3.2 04:32:37 10° SSW 04:36:41 68° W 04:40:39 10° N
STARLINK-1287 3.6 04:32:31 10° NW 04:36:44 83° NE 04:40:24 13° ESE
STARLINK-1303 4.2 04:33:32 10° W 04:36:46 35° SSW 04:39:37 12° SE
FALCON 9 DEB 3.9 04:33:25 10° SW 04:36:46 37° SSE 04:39:35 13° E
Cosmos 1862 3.5 04:34:25 10° N 04:38:19 50° E 04:42:18 10° SSE
STARLINK-75 4.4 04:35:47 10° WSW 04:38:39 28° SSW 04:41:08 12° SE
STARLINK-1312 4.2 04:35:33 10° W 04:38:45 35° SSW 04:41:32 13° SE
STARLINK-1371 4.4 04:36:01 10° SW 04:39:15 28° SSE 04:41:37 15° ESE
Cosmos 2322 Rocket 4.0 04:36:16 10° WNW 04:41:02 27° SW 04:45:52 10° S
STARLINK-1341 4.4 04:38:41 10° SW 04:41:58 29° SSE 04:44:13 16° ESE
SL-4 R/B 2.1 04:38:23 10° WSW 04:42:05 68° NNW 04:46:01 10° NE
STARLINK-1374 4.4 04:41:17 10° SW 04:44:34 29° SSE 04:46:42 17° ESE
STARLINK-58 4.0 04:42:16 10° W 04:45:18 36° SSW 04:47:38 15° SE
NOSS 0 Rocket 4.4 04:39:51 10° N 04:45:37 40° ENE 04:51:21 10° SE
Cosmos 1238 Rocket 4.0 04:42:12 10° NE 04:45:52 25° E 04:48:23 14° SE
Cosmos 1805 Rocket 3.5 04:41:48 10° N 04:46:10 70° E 04:50:38 10° SSE
Envisat 4.0 04:41:59 10° SE 04:46:12 25° E 04:50:22 10° NNE
STARLINK-1302 3.7 04:42:28 10° WNW 04:46:41 85° SW 04:49:59 16° SE
STARLINK-1339 4.4 04:43:58 10° SW 04:47:16 30° SSE 04:49:19 18° ESE
STARLINK-22 4.4 04:45:20 10° W 04:48:15 28° SSW 04:50:24 15° SE
STARLINK-1377 4.3 04:46:19 10° SW 04:49:36 30° SSE 04:51:30 19° ESE
Cosmos 2123 Rocket 4.2 04:44:44 10° S 04:51:02 78° W 04:57:16 10° N
STARLINK-1273 3.7 04:47:28 10° WNW 04:51:40 80° SSW 04:54:46 18° SE
STARLINK-1353 4.3 04:48:59 10° SW 04:52:18 31° SSE 04:54:05 20° ESE
Meteor 1-27 Rocket 4.0 04:47:26 10° S 04:53:13 51° ESE 04:59:01 10° NNE
USA 234 3.7 04:47:01 11° SE 04:53:16 55° SSW 04:59:40 10° WNW
STARLINK-1320 4.0 04:50:55 10° SW 04:53:48 29° SSE 04:54:59 22° ESE
STARLINK-1322 4.0 04:51:14 10° SW 04:54:07 29° SSE 04:55:18 22° ESE
Cosmos 1812 2.8 04:50:18 10° S 04:54:11 54° E 04:57:59 10° NNE
STARLINK-1324 4.0 04:51:36 10° SW 04:54:28 29° SSE 04:55:38 22° ESE
STARLINK-1294 4.0 04:51:58 10° SW 04:54:48 29° SSE 04:55:55 23° SE
COSMOS 2428 2.7 04:49:06 10° NNW 04:54:51 85° ENE 05:00:42 10° SSE
STARLINK-1261 4.0 04:52:15 10° SW 04:55:08 29° SSE 04:56:17 23° ESE
STARLINK-1375 4.3 04:51:59 10° SW 04:55:22 32° SSE 04:57:03 21° ESE
STARLINK-1325 4.0 04:52:35 10° SW 04:55:28 29° SSE 04:56:35 23° ESE
STARLINK-1333 4.0 04:52:58 10° SW 04:55:51 29° SSE 04:56:57 23° SE
STARLINK-1334 4.0 04:53:17 10° SW 04:56:10 29° SSE 04:57:16 23° SE
STARLINK-1326 4.0 04:53:38 10° SW 04:56:31 29° SSE 04:57:35 24° SE
Cosmos 1461 3.1 04:52:44 10° SSW 04:56:34 42° SE 05:00:02 11° ENE
STARLINK-1288 3.7 04:52:26 10° WNW 04:56:38 75° SSW 04:59:32 20° SE
STARLINK-1323 4.0 04:53:56 10° SW 04:56:50 30° SSE 04:57:54 24° SE
STARLINK-81 4.3 04:53:20 10° NNW 04:56:54 35° NE 04:58:52 21° E
STARLINK-1349 4.0 04:54:19 10° SW 04:57:12 30° SSE 04:58:15 24° SE
ADEOS Rocket 4.2 04:49:48 10° N 04:57:17 61° W 05:05:05 10° SSW
Helios 1A Rocket 4.3 04:56:55 19° E 04:57:17 19° E 05:00:15 10° NE
STARLINK-1336 4.0 04:54:37 10° SW 04:57:31 30° SSE 04:58:33 24° SE
STARLINK-1350 4.2 04:54:23 10° SW 04:57:44 32° SSE 04:59:17 23° ESE
STARLINK-1331 4.0 04:55:01 10° SW 04:57:54 30° SSE 04:58:55 24° SE
STARLINK-1344 3.9 04:55:21 10° SW 04:58:15 30° SSE 04:59:15 24° SE
STARLINK-1343 3.9 04:55:38 10° SW 04:58:32 30° SSE 04:59:31 25° SE
STARLINK-54 4.2 04:54:55 10° NNW 04:58:34 39° NE 05:00:34 22° E
STARLINK-1346 3.9 04:56:03 10° SW 04:58:55 30° SSE 04:59:51 25° SE
STARLINK-1328 3.9 04:56:19 10° SW 04:59:13 30° SSE 05:00:11 25° SE
STARLINK-1354 3.9 04:56:38 10° SW 04:59:33 30° SSE 05:00:30 25° SE
STARLINK-1347 3.9 04:57:00 10° SW 04:59:54 30° SSE 05:00:50 25° SE
STARLINK-77 4.2 04:56:25 10° NNW 05:00:02 37° NE 05:01:54 23° E
STARLINK-1357 3.9 04:57:20 10° SW 05:00:14 31° SSE 05:01:09 26° SE
STARLINK-1352 4.2 04:57:07 10° SW 05:00:29 33° SSE 05:01:54 24° ESE
ATLAS 5 CENTAUR R/B 3.3 04:54:06 10° N 05:00:35 37° ENE 05:04:51 19° ESE
STARLINK-1335 3.9 04:57:43 10° SW 05:00:38 31° SSE 05:01:32 26° SE
STARLINK-1327 3.9 04:57:59 10° SW 05:00:54 31° SSE 05:01:48 26° SE
STARLINK-1340 3.9 04:58:20 10° SW 05:01:15 31° SSE 05:02:08 26° SE
STARLINK-1356 3.9 04:58:41 10° SW 05:01:36 31° SSE 05:02:28 26° SE
STARLINK-1308 3.8 04:57:28 10° WNW 05:01:40 69° SSW 05:04:21 21° SE
STARLINK-1345 3.9 04:59:01 10° SW 05:01:56 31° SSE 05:02:47 27° SE
STARLINK-1355 3.9 04:59:20 10° SW 05:02:16 31° SSE 05:03:06 27° SE
STARLINK-1010 4.5 04:58:21 10° NNW 05:02:19 37° NE 05:04:24 23° E
STARLINK-1321 3.9 04:59:42 10° SW 05:02:38 31° SSE 05:03:27 27° SE
STARLINK-1358 3.9 05:00:01 10° SW 05:02:57 31° SSE 05:03:45 27° SE
STARLINK-1368 4.1 04:59:51 10° SW 05:03:15 34° SSE 05:04:32 26° ESE
STARLINK-1332 3.9 05:00:26 10° SW 05:03:21 32° SSE 05:04:08 28° SE
STARLINK-1348 3.9 05:00:43 10° SW 05:03:39 32° SSE 05:04:25 28° SE
STARLINK-1330 3.8 05:01:01 10° SW 05:03:58 32° SSE 05:04:43 28° SE
STARLINK-60 3.9 05:00:50 10° WSW 05:04:01 47° NW 05:07:08 10° NE
STARLINK-1025 4.5 05:00:16 10° NNW 05:04:06 35° NE 05:05:56 24° E
Lacrosse 5 rocket 3.2 05:01:29 10° NNE 05:04:07 16° ENE 05:04:38 16° ENE
Cosmos 1624 Rocket 4.1 04:59:00 10° SSW 05:04:11 54° ESE 05:09:21 10° NE
STARLINK-1363 3.8 05:01:26 10° SW 05:04:23 32° SSE 05:05:07 28° SE
STARLINK-1337 3.8 05:01:43 10° SW 05:04:39 32° SSE 05:05:23 28° SE
STARLINK-79 4.1 05:01:15 10° NNW 05:04:55 40° NE 05:06:37 26° E
STARLINK-1342 3.8 05:02:03 10° SW 05:05:00 32° SSE 05:05:42 29° SE
COSMO-SKYMED 1 4.3 05:01:03 10° NNW 05:05:05 36° W 05:09:12 10° SSW
STARLINK-1364 3.8 05:02:22 10° SW 05:05:19 32° SSE 05:06:01 29° SE
STARLINK-1376 3.8 05:02:44 10° SW 05:05:41 32° SSE 05:06:22 29° SE
STARLINK-1360 3.8 05:03:03 10° SW 05:06:00 32° SSE 05:06:40 29° SE
STARLINK-1369 4.1 05:02:36 10° SW 05:06:02 34° SSE 05:07:13 27° ESE
STARLINK-1361 3.8 05:03:22 10° SW 05:06:20 33° SSE 05:06:59 29° SE
STARLINK-78 4.0 05:02:51 10° NNW 05:06:32 42° NE 05:08:11 27° E
STARLINK-1367 3.8 05:03:45 10° SW 05:06:40 32° SSE 05:07:16 30° SE
STARLINK-1366 3.8 05:04:07 10° SW 05:07:05 33° SSE 05:07:42 30° SE
CZ-4B R/B 3.2 05:01:44 10° SSE 05:07:11 60° ENE 05:12:39 10° N
Cosmos 2237 Rocket 2.6 05:01:54 10° N 05:07:14 43° ENE 05:11:03 18° SE
Cosmos 1943 Rocket 4.0 05:05:38 10° SSE 05:07:27 12° SSE 05:07:27 12° SSE
STARLINK-57 3.9 05:04:32 10° NNW 05:08:17 45° NE 05:09:54 28° E
STARLINK-61 3.5 05:04:22 10° WNW 05:08:21 81° SSW 05:10:27 27° SE
STARLINK-1372 4.1 05:05:23 10° SW 05:08:50 35° SSE 05:09:54 29° ESE
Cosmos 371 Rocket 4.4 05:05:03 10° S 05:08:52 22° SE 05:08:53 22° SE
STARLINK-1017 4.4 05:05:07 10° NNW 05:09:00 38° NE 05:10:41 26° E
Cosmos 2369 Rocket 4.2 05:08:01 10° SSE 05:08:42 10° SSE 05:08:42 10° SSE
Cosmos 1707 Rocket 3.5 05:04:58 10° S 05:09:29 77° E 05:13:54 10° NNE
STARLINK-49 4.0 05:06:07 10° NNW 05:09:50 44° NE 05:11:22 29° E
STARLINK-27 3.9 05:07:41 10° NNW 05:11:25 46° NE 05:12:53 30° E
STARLINK-1304 3.9 05:07:27 10° WNW 05:11:38 61° SSW 05:13:54 25° SE
Cosmos 1470 Rocket 4.4 05:07:48 10° NNE 05:11:46 31° E 05:13:11 25° ESE
STARLINK-1378 4.0 05:08:25 10° SW 05:11:55 37° SSE 05:12:53 31° SE
STARLINK-74 3.9 05:09:19 10° NW 05:13:04 47° NE 05:14:28 31° E
STARLINK-1286 4.0 05:09:45 10° WNW 05:13:56 58° SSW 05:16:08 26° SE
STARLINK-1023 4.2 05:10:02 10° NNW 05:13:58 41° NE 05:15:28 30° E
STARLINK-1329 4.0 05:10:42 10° SW 05:14:12 37° SSE 05:15:02 32° SE
STARLINK-1379 4.0 05:10:59 10° SW 05:14:28 37° SSE 05:15:17 33° SE
STARLINK-39 3.8 05:10:56 10° NW 05:14:41 49° NE 05:16:02 33° E
STARLINK-31 3.8 05:12:32 10° NW 05:16:19 51° NE 05:17:37 34° E
STARLINK-1362 3.9 05:13:52 10° SW 05:17:26 39° SSE 05:18:12 35° SE
STARLINK-1365 3.9 05:14:05 10° SW 05:17:40 40° SSE 05:18:25 35° SE
STARLINK-69 3.6 05:14:17 10° NW 05:18:06 57° NE 05:19:23 36° E
STARLINK-1007 4.1 05:14:56 10° NNW 05:18:57 45° NE 05:20:16 33° E
ATLAS CENTAUR R/B 3.8 05:17:08 10° S 05:18:35 12° SSE 05:18:35 12° SSE
Cosmos 1371 Rocket 4.0 05:13:48 10° SSW 05:19:17 81° ESE 05:24:40 10° NNE
STARLINK-21 3.7 05:15:48 10° NW 05:19:36 54° NE 05:20:47 38° E
STARLINK-1373 3.9 05:16:40 10° SW 05:20:14 40° SSE 05:20:51 37° SE
STARLINK-45 3.5 05:17:34 10° NW 05:21:24 61° NE 05:22:35 40° E
AQUARIUS 4.4 05:18:31 19° SSE 05:21:31 48° E 05:25:54 10° N
STARLINK-1390 3.8 05:19:21 10° SW 05:22:54 41° SSE 05:23:22 39° SE
STARLINK-70 3.5 05:19:10 10° NW 05:23:00 61° NE 05:24:06 41° E
SL-16 R/B 3.4 05:18:50 10° NNE 05:22:27 22° ENE 05:22:27 22° ENE
Cosmos 1862 Rocket 3.7 05:18:59 10° S 05:23:28 52° ESE 05:27:53 10° NNE
STARLINK-1048 4.0 05:19:51 10° NW 05:23:53 49° NE 05:25:03 38° E
STARLINK-76 3.5 05:20:42 10° NW 05:24:31 60° NE 05:25:32 43° E
STARLINK-1029 4.4 05:21:49 10° WSW 05:24:37 27° SSW 05:25:14 25° S
STARLINK-71 3.6 05:20:41 10° NW 05:24:43 65° NE 05:25:57 41° ESE
Cosmos 158 Rocket 4.1 05:19:45 10° NNW 05:24:56 78° WSW 05:30:06 11° SSE
Cosmos 1802 Rocket 4.4 05:19:53 10° NNE 05:25:50 41° E 05:31:51 10° SSE
STARLINK-23 3.5 05:22:19 10° NW 05:26:10 62° NE 05:27:06 45° E
Cosmos 2333 Rocket 3.1 05:22:02 10° NW 05:27:38 49° WSW 05:33:16 10° SSE
STARLINK-32 3.5 05:23:56 10° NW 05:27:47 64° NE 05:28:40 47° E
STARLINK-1299 4.4 05:23:46 10° W 05:27:57 46° SSW 05:29:38 30° SSE
STARLINK-1306 4.3 05:24:15 10° W 05:28:23 48° SSW 05:30:01 31° SSE
Cosmos 2112 Rocket 4.2 05:23:07 10° NNW 05:28:27 73° WSW 05:33:30 12° SSE
Okean O Rocket 1.6 05:24:13 10° SSE 05:28:43 84° WSW 05:33:11 10° NNW
STARLINK-1049 3.9 05:24:45 10° NW 05:28:51 54° NE 05:29:49 43° E
H-2A R/B 2.9 05:25:18 10° S 05:29:11 75° WSW 05:33:05 10° NNW
STARLINK-40 3.5 05:25:37 10° NW 05:29:28 66° NE 05:30:18 49° E
STARLINK-44 3.4 05:27:12 10° NW 05:31:03 68° NE 05:31:48 52° E
STARLINK-1281 4.3 05:27:31 10° W 05:31:36 48° SSW 05:33:02 34° SSE
Cosmos 2278 Rocket 2.2 05:26:00 10° SSW 05:31:45 88° WNW 05:37:26 10° NNE
STARLINK-29 3.6 05:29:37 10° WSW 05:32:53 55° NW 05:33:59 35° NNE
STARLINK-37 3.4 05:29:01 10° NW 05:32:54 74° NE 05:33:38 55° ESE
Sich 1 4.0 05:29:26 10° NNW 05:33:42 50° WSW 05:38:06 10° S
STARLINK-1051 3.8 05:29:42 10° NW 05:33:49 59° NE 05:34:37 48° E
STARLINK-36 3.4 05:30:27 10° NW 05:34:18 72° NE 05:34:57 57° E
STARLINK-68 3.3 05:32:18 10° NW 05:36:10 80° NE 05:36:47 61° ESE
SMAP 3.0 05:32:36 16° SSE 05:36:28 75° ENE 05:41:09 10° N
STARLINK-1310 4.3 05:32:33 10° W 05:36:37 46° SSW 05:37:49 35° SSE
STARLINK-63 3.3 05:33:53 10° NW 05:37:46 79° NE 05:38:18 63° ESE
STARLINK-35 3.3 05:35:23 10° NW 05:39:16 78° NE 05:39:42 66° E
STARLINK-51 3.3 05:37:05 10° NW 05:40:58 81° NE 05:41:22 69° E
STARLINK-1319 4.4 05:37:34 10° W 05:41:36 44° SSW 05:42:36 37° SSE
STARLINK-30 3.3 05:38:42 10° NW 05:42:36 83° NE 05:42:55 73° E
STARLINK-1028 3.5 05:39:36 10° NW 05:43:46 69° NE 05:44:12 63° ENE
STARLINK-72 3.3 05:40:25 10° NW 05:44:18 85° NNE 05:44:35 76° ESE
STARLINK-1277 4.4 05:42:35 10° W 05:46:36 42° SSW 05:47:22 38° S
STARLINK-59 3.3 05:43:45 10° WNW 05:47:39 87° SSW 05:47:48 82° SE
Cosmos 2056 Rocket 3.8 05:42:21 10° SSW 05:47:42 69° WNW 05:52:55 10° N
STARLINK-1021 3.5 05:44:32 10° NW 05:48:44 75° NE 05:48:58 72° ENE
STARLINK-56 3.3 05:45:19 10° WNW 05:49:12 89° SW 05:49:17 86° SE
ATLAS 2AS CENTAUR R/B 3.2 05:44:23 10° SSW 05:50:25 37° SE 05:51:07 36° SE
STARLINK-73 3.3 05:46:58 10° WNW 05:50:52 86° SSW 05:50:52 86° SSW
STARLINK-1276 4.5 05:47:38 10° W 05:51:38 40° SSW 05:52:09 38° S
STARLINK-38 3.4 05:48:36 10° WNW 05:52:27 84° SW 05:52:27 84° SW
CZ-2C R/B 3.0 05:53:39 43° SE 05:53:39 43° SE 05:58:01 10° S
STARLINK-1019 3.5 05:49:32 10° NW 05:53:43 81° NNE 05:53:46 81° NE
STARLINK-24 3.5 05:50:01 10° WNW 05:54:05 79° SSW 05:54:10 78° S
STARLINK-65 3.4 05:50:16 10° WNW 05:54:03 81° WSW 05:54:03 81° WSW
STARLINK-53 3.5 05:52:11 10° WNW 05:55:57 76° WSW 05:55:57 76° WSW
STARLINK-25 3.6 05:53:45 10° WNW 05:57:08 69° W 05:57:08 69° W
STARLINK-1012 3.6 05:54:29 10° NW 05:58:32 83° NNW 05:58:32 83° NNW
Cosmos 1818 3.7 05:53:17 10° NW 05:58:42 72° SW 06:00:42 39° SSE
Cosmos 1933 Rocket 4.1 05:55:41 10° N 05:58:46 44° NNE 05:58:46 44° NNE
Cosmos 1633 Rocket 4.2 05:58:04 10° NNW 06:02:20 45° WSW 06:06:32 11° S
YAOGAN 6 3.0 06:03:03 64° W 06:03:03 64° W 06:06:33 10° NNW
Meteor 1-25 Rocket 4.0 06:00:29 10° N 06:06:03 78° E 06:07:53 45° SSE
Centaur D AC-29 3.9 06:04:26 10° NW 06:07:21 12° NNW 06:09:25 10° N
Cosmos 2100 Rocket 4.1 06:01:51 10° NNW 06:08:04 76° W 06:14:20 10° S
Cosmos 2219 Rocket 4.0 06:03:35 10° WNW 06:08:26 28° SW 06:13:01 11° S
STARLINK-1026 3.9 06:04:27 10° WNW 06:08:07 66° WNW 06:08:07 66° WNW
Meteor 1-18 Rocket 4.3 06:03:08 10° S 06:08:02 56° SE 06:08:02 56° SE
STARLINK-50 4.1 06:06:11 10° WNW 06:09:41 57° WSW 06:09:41 57° WSW
STARLINK-1013 4.2 06:09:24 10° WNW 06:12:52 58° W 06:12:52 58° W
Cosmos 1452 Rocket 3.6 06:12:51 10° SSW 06:17:29 66° S 06:17:29 66° S
STARLINK-1009 4.4 06:14:24 10° WNW 06:17:39 51° W 06:17:39 51° W
Cosmos 1420 Rocket 4.3 06:16:12 10° SSW 06:21:33 67° WNW 06:24:07 30° N
Cosmos 2061 Rocket 3.9 06:18:32 10° N 06:24:50 87° W 06:28:12 30° S
CZ-4C R/B 4.4 06:21:27 10° SSW 06:24:38 15° S 06:24:38 15° S
Envisat 4.0 06:21:20 14° S 06:25:25 45° WSW 06:30:16 10° NW
Feng Yun 1-1 Rocket 4.4 06:27:58 47° S 06:29:27 68° WSW 06:34:52 10° NNW
Cosmos 2297 4.0 06:26:07 10° SSW 06:30:33 55° SSW 06:30:33 55° SSW
Helios 1A Rocket 4.4 06:33:09 36° W 06:33:09 36° W 06:36:22 10° NW
Cosmos 2016 Rocket 4.1 06:29:06 10° NNW 06:35:23 75° W 06:39:15 26° S
USA 234 4.3 06:34:22 31° S 06:35:28 33° S 06:41:12 10° WSW
Cosmos 1864 Rocket 4.4 06:30:03 10° N 06:36:14 87° W 06:36:18 86° SW
Lacrosse 5 rocket 3.3 06:38:18 10° NW 06:40:18 27° NW 06:40:18 27° NW
ATLAS 5 CENTAUR R/B 3.0 06:38:15 10° NW 06:45:16 58° SW 06:46:25 51° S
Cosmos 2237 Rocket 3.7 06:46:20 10° WNW 06:51:25 33° SW 06:52:55 29° SSW
Cosmos 1943 Rocket 4.1 06:47:28 10° SSW 06:48:59 19° SSW 06:48:59 19° SSW
Cosmos 2369 Rocket 4.3 06:49:17 10° SSW 06:50:30 16° S 06:50:30 16° S
ATLAS CENTAUR R/B 4.4 06:54:34 10° SSW 06:54:46 11° SSW 06:54:46 11° SSW
BREEZE-M DEB (TANK) 4.5 06:48:11 10° WNW 06:59:38 61° NW 06:59:38 61° NW
SL-16 R/B 3.5 07:01:04 10° NW 07:04:24 35° NW 07:04:24 35° NW
BREEZE M DEB (TANK) 4.1 06:56:42 10° WSW 07:13:12 73° W 07:13:12 73° W
NOSS 3-4 (A) 4.4 07:08:18 10° SW 07:13:16 47° SW 07:13:16 47° SW
NOSS 3-4 (C) 4.4 07:08:23 10° SW 07:13:20 47° SW 07:13:20 47° SW
ATLAS 2AS CENTAUR R/B 4.0 07:35:04 10° SW 07:38:34 33° WSW 07:38:34 33° WSW
